Location: Marcé
(47.5801°N, 0.3280°W)
Time: 21:20:33
(UTC+01:00)

Tiros 1 - Pass Details

Date: 07 December 2021
Orbit: 630 x 663 km, 48.4° (Epoch: 20 January)

Event Time Altitude Azimuth Distance (km) Brightness Sun altitude
Rises 21:02:43 0° 272° (W) 2,928 11.5 -38.2°
Reaches altitude 10° 21:05:02 10° 273° (W) 2,024 10.4 -38.6°
Enters shadow 21:05:40 14° 274° (W) 1,778 10.0 -38.7°
Maximum altitude 21:09:42 80° 1° (N) 656 - -39.4°
Drops below altitude 10° 21:14:25 10° 89° (E) 2,045 - -40.2°
Sets 21:16:46 0° 90° (E) 2,961 - -40.5°
